CW5478 Weather Reports


Display with metric or nautical units.
time (UTC)temp
F
wind
direction
speed
MPH
gust
MPH
rain 1hr
in
rain 24hr
in
rain mn
in
humidity
%
barometer
mb
20260509132306 50 292 4.0 7.0 0.00 0.00 0.00 51 1024.1
20260509131802 51 315 5.0 8.0 0.00 0.00 0.00 50 1024.1
20260509131303 52 340 4.0 8.0 0.00 0.00 0.00 48 1024.0
20260509130803 53 0 3.0 7.0 0.00 0.00 0.00 45 1024.0
20260509130302 52 225 5.0 7.0 0.00 0.00 0.00 45 1024.0
20260509125307 50 247 4.0 6.0 0.00 0.00 0.00 48 1024.0
20260509124803 49 270 1.0 2.0 0.00 0.00 0.00 48 1023.7
20260509124302 48 270 1.0 5.0 0.00 0.00 0.00 50 1023.7
20260509123803 48 270 4.0 6.0 0.00 0.00 0.00 50 1023.7
20260509123302 48 0 3.0 6.0 0.00 0.00 0.00 49 1023.7
20260509122802 47 315 5.0 6.0 0.00 0.00 0.00 50 1023.3
20260509122305 47 270 6.0 8.0 0.00 0.00 0.00 51 1023.3
20260509121302 44 270 6.0 8.0 0.00 0.00 0.00 59 1023.1
20260509120803 44 315 3.0 8.0 0.00 0.00 0.00 58 1023.0
20260509120303 45 312 1.0 10.0 0.00 0.00 0.00 56 1023.0
20260509115802 45 325 4.0 5.0 0.00 0.00 0.00 54 1023.0
20260509115306 45 287 4.0 6.0 0.00 0.00 0.00 55 1023.0
20260509114803 44 270 6.0 8.0 0.00 0.00 0.00 57 1023.0
20260509114302 44 270 5.0 6.0 0.00 0.00 0.00 57 1023.0
20260509113803 45 284 4.0 6.0 0.00 0.00 0.00 55 1023.0
20260509112803 48 315 3.0 6.0 0.00 0.00 0.00 48 1023.0
20260509112306 49 0 6.0 12.0 0.00 0.00 0.00 42 1023.0
20260509111802 50 261 11.0 18.0 0.00 0.00 0.00 41 1023.0
20260509111303 50 245 13.0 21.0 0.00 0.00 0.00 41 1022.8
20260509110803 50 270 10.0 15.0 0.00 0.00 0.00 40 1023.0
20260509110302 51 257 10.0 16.0 0.00 0.00 0.00 40 1023.0
20260509105802 50 270 13.0 16.0 0.00 0.00 0.00 41 1022.8
20260509105306 49 269 12.0 18.0 0.00 0.00 0.00 42 1022.9
20260509104803 48 270 10.0 15.0 0.00 0.00 0.00 44 1022.7
20260509104303 49 261 10.0 12.0 0.00 0.00 0.00 44 1022.7
20260509103302 45 234 8.0 9.0 0.00 0.00 0.00 56 1022.7
20260509102802 44 270 4.0 7.0 0.00 0.00 0.00 58 1022.7
20260509102305 44 315 3.0 8.0 0.00 0.00 0.00 58 1022.8
20260509101802 43 250 5.0 7.0 0.00 0.00 0.00 60 1022.9
20260509101302 43 225 5.0 6.0 0.00 0.00 0.00 61 1022.7
20260509100802 43 211 2.0 3.0 0.00 0.00 0.00 62 1022.7
20260509095306 42 217 6.0 7.0 0.00 0.00 0.00 63 1022.7
20260509094802 42 225 5.0 8.0 0.00 0.00 0.00 63 1023.0
20260509094302 42 225 4.0 6.0 0.00 0.00 0.00 63 1023.0
20260509092802 41 269 3.0 6.0 0.00 0.00 0.00 66 1023.0
20260509092305 41 225 2.0 6.0 0.00 0.00 0.00 66 1023.0
20260509091803 41 248 5.0 8.0 0.00 0.00 0.00 66 1023.0
20260509091302 41 225 9.0 10.0 0.00 0.00 0.00 65 1022.7
20260509090803 42 225 8.0 9.0 0.00 0.00 0.00 64 1022.7
20260509085802 43 270 4.0 7.0 0.00 0.00 0.00 64 1023.0
20260509085306 42 270 2.0 3.0 0.00 0.00 0.00 65 1023.0
20260509084802 42 240 3.0 7.0 0.00 0.00 0.00 65 1023.0
20260509084302 42 270 6.0 8.0 0.00 0.00 0.00 63 1023.0
20260509083803 42 270 6.0 7.0 0.00 0.00 0.00 63 1023.0
20260509081803 42 225 6.0 8.0 0.00 0.00 0.00 64 1023.0
20260509080803 43 225 7.0 7.0 0.00 0.00 0.00 63 1023.0
20260509080303 43 247 6.0 7.0 0.00 0.00 0.00 64 1023.2
20260509075802 43 247 5.0 8.0 0.00 0.00 0.00 64 1023.3
20260509075306 43 270 6.0 8.0 0.00 0.00 0.00 64 1023.3
20260509074803 43 270 6.0 7.0 0.00 0.00 0.00 64 1023.3
20260509074303 43 270 7.0 8.0 0.00 0.00 0.00 64 1023.3
20260509073303 43 292 4.0 8.0 0.00 0.00 0.00 65 1023.7
20260509072803 42 270 6.0 8.0 0.00 0.00 0.00 66 1023.7
20260509071303 43 270 6.0 8.0 0.00 0.00 0.00 66 1023.9
20260509070803 43 270 7.0 9.0 0.00 0.00 0.00 65 1023.8
20260509070303 44 270 7.0 8.0 0.00 0.00 0.00 64 1024.0
20260509065802 44 270 6.0 8.0 0.00 0.00 0.00 64 1024.0
20260509065306 44 270 6.0 7.0 0.00 0.00 0.00 64 1024.0
20260509064803 44 277 6.0 8.0 0.00 0.00 0.00 64 1024.0
20260509064302 44 270 6.0 8.0 0.00 0.00 0.00 64 1024.2
20260509063803 45 270 5.0 7.0 0.00 0.00 0.00 63 1024.0
20260509063303 45 270 5.0 7.0 0.00 0.00 0.00 63 1024.0
20260509062305 45 270 6.0 7.0 0.00 0.00 0.00 63 1024.1
20260509061803 45 270 6.0 8.0 0.00 0.00 0.00 63 1024.0
20260509061303 45 270 6.0 7.0 0.00 0.00 0.00 63 1024.3
20260509060856 46 270 5.0 6.0 0.00 0.00 0.00 63 1024.3
20260509060303 46 270 5.0 6.0 0.00 0.00 0.00 63 1024.1
20260509055803 45 270 5.0 8.0 0.00 0.00 0.00 65 1024.3
20260509054803 44 232 8.0 9.0 0.00 0.00 0.00 65 1024.3
20260509054303 46 225 7.0 10.0 0.00 0.00 0.00 61 1024.3
20260509053803 48 203 5.0 9.0 0.00 0.00 0.00 59 1024.3
20260509053302 48 270 3.0 3.0 0.00 0.00 0.00 60 1024.3
20260509052803 46 270 3.0 5.0 0.00 0.00 0.00 63 1024.2
20260509052306 45 263 5.0 7.0 0.00 0.00 0.00 66 1024.3
20260509051803 45 225 5.0 6.0 0.00 0.00 0.00 66 1024.3
20260509051303 46 270 5.0 6.0 0.00 0.00 0.00 65 1024.3
20260509050303 47 270 4.0 6.0 0.00 0.00 0.00 63 1024.3
20260509045803 47 225 7.0 8.0 0.00 0.00 0.00 64 1024.3
20260509045306 46 225 6.0 7.0 0.00 0.00 0.00 65 1024.7
20260509044302 47 222 4.0 7.0 0.00 0.00 0.00 64 1024.7
20260509043802 48 180 5.0 6.0 0.00 0.00 0.00 63 1024.5
20260509043302 48 243 6.0 7.0 0.00 0.00 0.00 62 1024.7
20260509042306 48 270 7.0 8.0 0.00 0.00 0.00 62 1024.3
20260509041803 48 270 7.0 8.0 0.00 0.00 0.00 62 1024.5
20260509041303 48 270 7.0 8.0 0.00 0.00 0.00 62 1024.3
20260509040804 48 270 8.0 10.0 0.00 0.00 0.00 62 1024.3
20260509040303 48 270 8.0 10.0 0.00 0.00 0.00 62 1024.3
20260509035802 49 270 7.0 9.0 0.00 0.00 0.00 61 1024.3
20260509035306 49 270 6.0 8.0 0.00 0.00 0.00 60 1024.3
20260509034803 50 270 7.0 8.0 0.00 0.00 0.00 60 1024.3
20260509034303 50 270 7.0 9.0 0.00 0.00 0.00 60 1024.3
20260509033802 50 270 6.0 8.0 0.00 0.00 0.00 58 1024.3
20260509033303 52 270 6.0 7.0 0.00 0.00 0.00 54 1024.3
20260509032803 52 345 3.0 5.0 0.00 0.00 0.00 53 1024.2
20260509031803 53 45 4.0 7.0 0.00 0.00 0.00 52 1024.2
20260509031303 53 132 2.0 5.0 0.00 0.00 0.00 53 1024.2
20260509030803 52 135 3.0 7.0 0.00 0.00 0.00 54 1024.2
20260509025803 51 102 4.0 10.0 0.00 0.00 0.00 58 1024.0
20260509025306 52 179 5.0 6.0 0.00 0.00 0.00 57 1024.0
20260509024803 52 265 5.0 9.0 0.00 0.00 0.00 56 1024.0
20260509024303 52 275 7.0 12.0 0.00 0.00 0.00 55 1023.8
20260509023803 52 300 9.0 15.0 0.00 0.00 0.00 55 1023.7
20260509023303 52 282 10.0 14.0 0.00 0.00 0.00 56 1023.7
20260509022306 53 289 7.0 9.0 0.00 0.00 0.00 55 1023.5
20260509021802 53 315 7.0 10.0 0.00 0.00 0.00 53 1023.5
20260509020802 54 306 6.0 10.0 0.00 0.00 0.00 50 1023.3
20260509015803 54 2 5.0 8.0 0.00 0.00 0.00 50 1023.2
20260509014802 55 202 3.0 3.0 0.00 0.00 0.00 50 1023.0
20260509014303 55 202 2.0 3.0 0.00 0.00 0.00 49 1023.0
20260509013803 55 180 3.0 5.0 0.00 0.00 0.00 48 1023.0
20260509013303 55 135 5.0 8.0 0.00 0.00 0.00 47 1023.0
20260509012803 56 180 8.0 12.0 0.00 0.00 0.00 47 1023.0
20260509012306 56 180 7.0 13.0 0.00 0.00 0.00 47 1023.0
20260509011803 57 174 9.0 20.0 0.00 0.00 0.00 47 1023.0
20260509011303 57 174 10.0 16.0 0.00 0.00 0.00 46 1023.0
20260509010803 58 156 9.0 15.0 0.00 0.00 0.00 46 1022.8
20260509010303 58 144 11.0 18.0 0.00 0.00 0.00 45 1022.8
20260509005803 59 142 13.0 18.0 0.00 0.00 0.00 44 1022.8
20260509005306 59 135 16.0 21.0 0.00 0.00 0.00 43 1022.7
20260509004303 60 119 10.0 15.0 0.00 0.00 0.00 42 1022.7
20260509003302 59 135 9.0 15.0 0.00 0.00 0.00 41 1022.5
20260509002803 59 118 9.0 17.0 0.00 0.00 0.00 41 1022.3
20260509002306 59 143 12.0 17.0 0.00 0.00 0.00 42 1022.3
20260509001803 60 140 10.0 15.0 0.00 0.00 0.00 40 1022.3
20260509000802 61 154 7.0 24.0 0.00 0.00 0.00 37 1022.3
20260509000303 61 135 10.0 17.0 0.00 0.00 0.00 38 1022.3
20260508235803 62 342 5.0 12.0 0.00 0.00 0.00 36 1022.3
20260508235306 62 348 8.0 10.0 0.00 0.00 0.00 35 1022.3
20260508234802 63 0 5.0 9.0 0.00 0.00 0.00 30 1022.3
20260508234303 64 310 6.0 10.0 0.00 0.00 0.00 26 1022.1
20260508233803 64 315 7.0 13.0 0.00 0.00 0.00 25 1022.0
20260508233302 63 325 7.0 13.0 0.00 0.00 0.00 26 1022.3
20260508232306 63 262 5.0 10.0 0.00 0.00 0.00 26 1022.3
20260508231803 64 270 7.0 13.0 0.00 0.00 0.00 25 1022.0
20260508231303 65 262 3.0 7.0 0.00 0.00 0.00 24 1022.3
20260508230802 67 315 7.0 12.0 0.00 0.00 0.00 24 1022.0
20260508230302 67 224 6.0 14.0 0.00 0.00 0.00 25 1022.0
20260508225306 65 225 9.0 13.0 0.00 0.00 0.00 26 1022.3
20260508224302 65 270 14.0 20.0 0.00 0.00 0.00 25 1022.1
20260508223803 65 240 9.0 15.0 0.00 0.00 0.00 25 1022.3
20260508223302 65 223 13.0 22.0 0.00 0.00 0.00 25 1022.3
20260508222803 65 231 14.0 22.0 0.00 0.00 0.00 25 1022.0
20260508222306 65 226 13.0 21.0 0.00 0.00 0.00 25 1022.2
20260508221803 65 221 12.0 21.0 0.00 0.00 0.00 26 1022.3
20260508221303 65 233 12.0 17.0 0.00 0.00 0.00 26 1022.3
20260508220803 66 302 10.0 16.0 0.00 0.00 0.00 25 1022.3
20260508220302 67 269 7.0 14.0 0.00 0.00 0.00 25 1022.3
20260508215803 67 266 13.0 17.0 0.00 0.00 0.00 25 1022.3
20260508215306 68 270 3.0 9.0 0.00 0.00 0.00 24 1022.3
20260508214803 67 337 4.0 12.0 0.00 0.00 0.00 25 1022.3
20260508214303 67 2 9.0 13.0 0.00 0.00 0.00 25 1022.3
20260508213803 66 112 2.0 8.0 0.00 0.00 0.00 25 1022.3
20260508213303 65 225 6.0 13.0 0.00 0.00 0.00 26 1022.5
20260508212803 65 323 8.0 16.0 0.00 0.00 0.00 27 1022.3
20260508212306 67 298 12.0 18.0 0.00 0.00 0.00 26 1022.5
20260508211303 66 11 6.0 10.0 0.00 0.00 0.00 26 1022.3
20260508210803 65 85 2.0 15.0 0.00 0.00 0.00 26 1022.7
20260508210302 64 224 12.0 24.0 0.00 0.00 0.00 26 1022.7
20260508205803 64 313 10.0 29.0 0.00 0.00 0.00 27 1022.7
20260508205306 64 301 7.0 15.0 0.00 0.00 0.00 27 1022.7
20260508204802 64 256 12.0 20.0 0.00 0.00 0.00 28 1022.5
20260508204303 64 358 13.0 18.0 0.00 0.00 0.00 28 1022.7
20260508203803 64 311 13.0 20.0 0.00 0.00 0.00 28 1022.7
20260508202803 64 325 13.0 18.0 0.00 0.00 0.00 28 1022.8
20260508202306 63 328 10.0 20.0 0.00 0.00 0.00 29 1022.8
20260508201803 63 314 11.0 17.0 0.00 0.00 0.00 28 1023.0
20260508200803 64 0 10.0 21.0 0.00 0.00 0.00 29 1023.0
20260508200302 63 1 6.0 18.0 0.00 0.00 0.00 29 1023.0
20260508195803 62 331 10.0 17.0 0.00 0.00 0.00 30 1023.0
20260508195306 63 313 14.0 21.0 0.00 0.00 0.00 31 1023.0
20260508194803 63 290 13.0 25.0 0.00 0.00 0.00 31 1023.2
20260508194303 62 281 13.0 22.0 0.00 0.00 0.00 31 1023.2
20260508192803 61 225 9.0 17.0 0.00 0.00 0.00 30 1023.3
20260508192306 60 283 4.0 12.0 0.00 0.00 0.00 30 1023.3
20260508191802 60 294 6.0 14.0 0.00 0.00 0.00 31 1023.5
20260508190802 60 269 5.0 12.0 0.00 0.00 0.00 31 1023.3
20260508190303 60 277 5.0 23.0 0.00 0.00 0.00 32 1023.5
20260508185803 60 225 7.0 20.0 0.00 0.00 0.00 33 1023.5
20260508184802 60 299 7.0 20.0 0.00 0.00 0.00 33 1023.7
20260508184303 59 318 10.0 14.0 0.00 0.00 0.00 33 1023.7
20260508183803 59 270 12.0 17.0 0.00 0.00 0.00 33 1023.7
20260508182306 59 280 6.0 18.0 0.00 0.00 0.00 35 1024.0
20260508181803 59 277 9.0 14.0 0.00 0.00 0.00 34 1024.0
20260508181303 58 228 5.0 15.0 0.00 0.00 0.00 34 1024.0
20260508180803 58 285 9.0 15.0 0.00 0.00 0.00 34 1024.0
20260508180303 57 270 6.0 14.0 0.00 0.00 0.00 33 1024.0
20260508175803 57 270 11.0 17.0 0.00 0.00 0.00 33 1024.0
20260508175305 57 290 10.0 20.0 0.00 0.00 0.00 34 1024.0
20260508174803 58 293 12.0 17.0 0.00 0.00 0.00 34 1024.1
20260508174303 58 294 11.0 20.0 0.00 0.00 0.00 35 1024.0
20260508173304 57 271 7.0 16.0 0.00 0.00 0.00 34 1024.3
20260508172803 58 289 4.0 12.0 0.00 0.00 0.00 35 1024.3
20260508172306 58 324 6.0 10.0 0.00 0.00 0.00 34 1024.3
20260508171803 59 12 6.0 10.0 0.00 0.00 0.00 34 1024.3
20260508171302 58 346 7.0 13.0 0.00 0.00 0.00 35 1024.3
20260508170803 58 0 4.0 12.0 0.00 0.00 0.00 35 1024.3
20260508165803 57 54 2.0 8.0 0.00 0.00 0.00 37 1024.5
20260508165306 57 11 8.0 12.0 0.00 0.00 0.00 38 1024.3
20260508164803 57 0 7.0 13.0 0.00 0.00 0.00 38 1024.3
20260508164303 57 356 6.0 10.0 0.00 0.00 0.00 37 1024.3
20260508163803 57 10 8.0 15.0 0.00 0.00 0.00 37 1024.3
20260508163303 57 350 7.0 13.0 0.00 0.00 0.00 38 1024.3
20260508162802 57 1 5.0 10.0 0.00 0.00 0.00 38 1024.7
20260508162306 57 35 12.0 14.0 0.00 0.00 0.00 38 1024.6
20260508161803 56 25 7.0 13.0 0.00 0.00 0.00 35 1024.5
20260508161303 56 6 6.0 10.0 0.00 0.00 0.00 37 1024.5
20260508160804 56 25 7.0 12.0 0.00 0.00 0.00 39 1024.7
20260508160303 55 41 6.0 10.0 0.00 0.00 0.00 39 1024.5
20260508155802 55 37 6.0 12.0 0.00 0.00 0.00 39 1024.5
20260508155305 55 40 7.0 9.0 0.00 0.00 0.00 38 1024.7
20260508154803 55 334 6.0 10.0 0.00 0.00 0.00 39 1024.7
20260508154303 55 40 4.0 9.0 0.00 0.00 0.00 40 1024.5
20260508153804 54 4 5.0 8.0 0.00 0.00 0.00 41 1024.6
20260508153303 54 30 5.0 9.0 0.00 0.00 0.00 42 1024.7
20260508152803 53 49 5.0 9.0 0.00 0.00 0.00 43 1024.5
20260508151303 52 90 6.0 9.0 0.00 0.00 0.00 45 1024.5
20260508150803 52 45 7.0 9.0 0.00 0.00 0.00 45 1024.6
20260508145803 52 45 6.0 9.0 0.00 0.00 0.00 45 1024.3
20260508145306 52 45 6.0 8.0 0.00 0.00 0.00 45 1024.6
20260508144803 52 83 5.0 8.0 0.00 0.00 0.00 46 1024.6
20260508144304 52 77 5.0 8.0 0.00 0.00 0.00 47 1024.3
20260508143303 51 45 5.0 7.0 0.00 0.00 0.00 48 1024.6
20260508142802 51 27 6.0 9.0 0.00 0.00 0.00 48 1024.3
20260508142306 52 45 7.0 16.0 0.00 0.00 0.00 43 1024.6
20260508141803 52 306 9.0 15.0 0.00 0.00 0.00 38 1024.3
20260508141303 52 291 11.0 17.0 0.00 0.00 0.00 39 1024.3
20260508140803 52 299 13.0 17.0 0.00 0.00 0.00 39 1024.0
20260508140303 52 276 12.0 17.0 0.00 0.00 0.00 40 1024.0
20260508135803 51 272 10.0 18.0 0.00 0.00 0.00 41 1024.3
20260508135306 51 292 7.0 12.0 0.00 0.00 0.00 41 1024.3
20260508134803 51 282 6.0 16.0 0.00 0.00 0.00 40 1024.3
20260508134303 51 287 12.0 16.0 0.00 0.00 0.00 41 1024.3
20260508132803 50 270 8.0 15.0 0.00 0.00 0.00 41 1024.0